sat.trackr.live / text

‹ back to catalog

STARLINK-36654

NORAD 67838 · 2026-033T

PAYLOAD ACTIVE UNKNOWN

§ Identity

Operator
Country
US
Launch date
2026-02-16
Launch site
AFETR
Launch vehicle
Mass (kg)
RCS (m²)

Purposes: comms

External: N2YO · Heavens-Above · Gunter

§ Orbital elements

Epoch: 2026-05-24T20:55:43.796352Z

Period
94.27 min
Inclination
43.0034°
Eccentricity
0.0001603
Mean motion
15.27580161 rev/d
Perigee alt
481.9 km
Apogee alt
484.1 km
Semi-major
6,861.2 km
B*
2.8545e-4
RAAN
196.9381°
Arg perigee
280.4129°
Mean anomaly
79.6542°
Rev number
1,632

§ Raw data

STARLINK-366541 67838U 26033T   26144.87203468  .00007601  00000+0  28545-3 0  99912 67838  43.0034 196.9381 0001603 280.4129  79.6542 15.27580161 16322

JSON: /api/v1/satellites/67838 · /tle

For live sub-satellite position, see the globe view (requires WebGL).

§ Visibility from observer

Set your observer location to see the next 7 days of passes ≥ 10°. The values pass through the URL so the page stays shareable.

No JS? Fill the form by hand. The geolocation button needs JavaScript.